Torna al catalogo

BLOCK DM-SL R/B

AttivoHEO
NORAD 33377·ROCKET BODY· XX

Lanciato Sep 24, 2008 da Sea Launch Platform

Loading…

Prossimi Passaggi (prossime 24 ore)

TLE

AggiornatoSource: Space-Track

Epoca: Sep 14, 2026, 07:50 UTC

1 33377U 08045B   26257.32687497 -.00000157  00000-0  00000-0 0  9992
2 33377   0.9349  64.3396 6418468  77.0624 289.1079  2.12855347139808

Traccia BLOCK DM-SL R/B in tempo reale con AllMySat

Download on the App Store